Weather in Alwar

India     27°34′30″N   76°36′48″E
temp.,
°C
wind,
m/s
gust,
m/s
humid.,
%
clouds,
%
prec.,
mm/h
press.,
hPa
HPBL,
m
8 march, mon
mon823:30+24sw22150 0.0 100824
02:30+23wsw33170 0.0 100832
05:30+21w33310 0.0 100864
08:30+24nne12280 0.0 1011269
11:30+32w12210 0.0 10111429
14:30+35nw451313 0.0 10084106
17:30+33wnw341536 0.0 10072610
20:30+26nnw112214 0.0 100924
9 march, tue
tue923:30+23nw11227 0.0 101023
02:30+21w11240 0.0 101023
05:30+21wnw11260 0.0 101123
08:30+25ne11230 0.0 1013130
11:30+33se33140 0.0 10122134
14:30+36ssw54107 0.0 10094420
17:30+34sw431039 0.0 10073963
20:30+25w331461 0.0 101024
10 march, wed
wed1023:30+22nnw231730 0.0 101023
02:30+22wsw11180 0.0 100923
05:30+21wsw112014 0.0 100923
08:30+26sw011650 0.0 1012124
11:30+34e131025 0.0 10112065
14:30+36nw3480 0.0 10084606
17:30+34w3380 0.0 10064100
20:30+25nw23140 0.0 100826
11 march, thu
thu1123:30+23wsw12160 0.0 100924
02:30+22wnw22180 0.0 100923
05:30+21wnw11190 0.0 100923
08:30+27s11150 0.0 1012141
11:30+34se44100 0.0 10112163
14:30+36ssw4470 0.0 10084313
17:30+35sw5580 0.0 10063831
20:30+25sw11150 0.0 100924
12 march, fri
fri1223:30+24sw22160 0.0 101024
02:30+23w231938 0.0 101023
05:30+22wnw222235 0.1 101023
08:30+25sse23210 0.2 1014177
11:30+33s45120 0.4 10142274
14:30+35ssw811123 0.0 10103834
17:30+33sw5101425 0.0 10093978
20:30+26w12210 0.0 101124